This is the latest recevied weather packets stored in our database for station/object CQ0XPG-11. If no packets are shown the sender has not sent any weather packets the latest 10 day(s).
| Time | Temp. | Humidity | Pressure | Rain* | Wind** | Luminosity | Snow |
|---|---|---|---|---|---|---|---|
| 1778356161 | 11.11° C | 100% | 998.6 hPa | 8.89 mm | - | - | - |
| 1778355557 | 11.67° C | 100% | 998.4 hPa | 8.89 mm | - | - | - |
| 1778355285 | 11.67° C | 100% | 998.5 hPa | 8.89 mm | - | - | - |
| 1778354343 | 12.22° C | 100% | 998.2 hPa | 8.89 mm | - | - | - |
| 1778353752 | 12.22° C | 100% | 998.2 hPa | 8.89 mm | - | - | - |
| 1778353416 | 12.22° C | 100% | 998.2 hPa | 8.89 mm | - | - | - |
| 1778353150 | 12.22° C | 100% | 998.1 hPa | 8.89 mm | - | - | - |
| 1778352563 | 12.22° C | 100% | 998.1 hPa | 8.89 mm | - | - | - |
| 1778352227 | 12.22° C | 100% | 998.1 hPa | 8.89 mm | - | - | - |
| 1778351596 | 12.22° C | 100% | 997.8 hPa | 8.89 mm | - | - | - |
| 1778351324 | 11.67° C | 100% | 997.8 hPa | 8.89 mm | - | - | - |
| 1778350988 | 11.67° C | 100% | 997.8 hPa | 8.89 mm | - | - | - |
| 1778350695 | 11.67° C | 100% | 997.8 hPa | 8.89 mm | - | - | - |
| 1778350400 | 11.67° C | 100% | 997.8 hPa | 8.89 mm | - | - | - |
| 1778350084 | 11.67° C | 100% | 997.8 hPa | 8.89 mm | - | - | - |
| 1778349795 | 11.67° C | 100% | 997.7 hPa | 8.89 mm | - | - | - |
| 1778349507 | 11.67° C | 100% | 997.7 hPa | 8.89 mm | - | - | - |
| 1778349179 | 12.22° C | 100% | 997.6 hPa | 8.89 mm | - | - | - |
| 1778348877 | 11.67° C | 100% | 997.5 hPa | 8.89 mm | - | - | - |
| 1778348586 | 11.67° C | 100% | 997.4 hPa | 8.89 mm | - | - | - |
| 1778348289 | 11.67° C | 100% | 997.2 hPa | 8.89 mm | - | - | - |
| 1778347958 | 11.11° C | 100% | 997.1 hPa | 8.89 mm | - | - | - |
| 1778347655 | 11.11° C | 100% | 996.8 hPa | 8.89 mm | - | - | - |
| 1778347352 | 11.11° C | 100% | 996.7 hPa | 8.89 mm | - | - | - |
| 1778346138 | 10.56° C | 100% | 996.8 hPa | 8.89 mm | - | - | - |
* Rain since midnight (hover to see other rain measurements)
** Current wind speed in m/s (hover to see current wind gust speed)